Location: Burgerwiesen
(48.6500°N, 15.6167°E)
Time: 23:17:05
(UTC+00:00)

STARLINK-1270 - Pass Details

Date: 09 April 2020
Orbit: 378 x 381 km, 53.0° (Epoch: 03 June)

Event Time Altitude Azimuth Distance (km) Brightness Sun altitude
Rises 18:16:30 0° 295° (WNW) 2,259 9.4 -6.5°
Reaches altitude 10° 18:18:34 10° 297° (WNW) 1,403 7.5 -6.8°
Maximum altitude 18:21:42 76° 22° (NNE) 397 2.9 -7.3°
Enters shadow 18:24:42 11° 110° (ESE) 1,350 4.9 -7.8°
